Regional Weather Roundup
Issued by NWS

Home | Current Version | Previous Version | Graphics & Text | Print | Product List | Glossary On
Versions: 1 2 3 4 5 6 7 8 9 10 11 12 13 14 15 16 17 18 19 20 21 22 23 24 25 26 27 28 29 30 31 32 33 34 35 36 37 38 39 40 41 42 43 44 45 46 47 48 49 50
000
ASUS43 KFSD 251802
RWRSD

WEATHER ROUNDUP FOR SOUTH DAKOTA
NATIONAL WEATHER SERVICE SIOUX FALLS SD
100 PM CDT FRI MAY 25 2018

NOTE: "FAIR" INDICATES FEW OR NO CLOUDS BELOW 12,000 FEET WITH NO
SIGNIFICANT WEATHER AND/OR OBSTRUCTIONS TO VISIBILITY.


SDZ001>005-009-010-012>017-251900-
NORTHWEST AND NORTH CENTRAL SOUTH DAKOTA

CITY           SKY/WX    TMP DP  RH WIND       PRES   REMARKS
BUFFALO          N/A     81  49  32 W22G28    29.84S
FAITH            N/A     81  58  45 W12G21    29.87S
MOBRIDGE       SUNNY     87  57  35 W15       29.77F
$$

SDZ012>016-024>037-041>051-057-063-072>074-251900-
SOUTHWEST AND SOUTH CENTRAL SOUTH DAKOTA

CITY           SKY/WX    TMP DP  RH WIND       PRES   REMARKS
RAPID CTY ARPT SUNNY     81  57  43 VRB7      29.92F
PIERRE         SUNNY     84  65  52 W10       29.81S
CUSTER         PTSUNNY   75  46  35 SW8       30.06F
ELLSWORTH AFB  MOSUNNY   80  55  41 N12       29.92F
PHILIP         SUNNY     85  58  39 W7        29.86S
PINE RIDGE     SUNNY     82  59  45 NW7       29.95S
WINNER         FAIR      87  57  35 S3        29.84F
$$

SDZ004>011-016>023-039-040-251900-
NORTHEAST SOUTH DAKOTA

CITY           SKY/WX    TMP DP  RH WIND       PRES   REMARKS
ABERDEEN       MOSUNNY   89  54  30 NW15G21   29.75F
WATERTOWN      SUNNY     84  59  42 W12G18    29.79F
BROOKINGS      SUNNY     86  57  37 W12       29.80F
SISSETON         N/A     89  58  34 W13       29.72F
$$

SDZ017-020-022-023-036>040-048>070-251900-
SOUTHEAST SOUTH DAKOTA

CITY           SKY/WX    TMP DP  RH WIND       PRES   REMARKS
SIOUX FALLS    MOSUNNY   86  63  45 CALM      29.80F
HURON          SUNNY     90  56  31 NW8G18    29.77F
CHAMBERLAIN    SUNNY     89  60  38 NW6       29.82F
MITCHELL       SUNNY     88  58  36 W8        29.79F
YANKTON        SUNNY     86  64  47 CALM      29.82F
$$

ABBREVIATIONS USED IN REMARKS
   TC - TEMPERATURE IN CELSIUS
  WCI - WIND CHILL INDEX
   HX - HEAT INDEX
  VSB - VISIBILITY





USA.gov is the U.S. government's official web portal to all federal, state and local government web resources and services.